My Profile
  1. Member Settings
  2. My Devices
  3. Sign Out
        More Settings
      Elev 25 ft, 47.196 °N 1.453 °W

      Basse-Goulaine, FR

      Summary

      Temperature (°F)MaxAverageMin
      Max Temperature8672.1954
      Avg Temperature71.5262.1753
      Min Temperature6351.6945
      Precipitation (in)MaxAverageMinSum
      Precipitation0000
      Dew Point (°F)MaxAverageMin
      Dew Point59.1950.4240.27
      Wind (mph)MaxAverageMin
      Wind2011.845
      Gust Wind2523.3322
      Sea Level Pressure (in)MaxAverageMin
      Sea Level Pressure30.2329.9929.61

      Daily Observations

      DateTemp High/LowDew Pt High/LowHumidityWindMax WindWind GustPressurePrecip.Condition
      5/1/2022 68 °F / 52 °F 46 °F / 36 °F 52 % 13 mph - 30.07 in 0 in
      5/2/2022 66 °F / 54 °F 48 °F / 41 °F 59 % 12 mph - 29.95 in 0 in
      5/3/2022 68 °F / 46 °F 48 °F / 41 °F 64 % 10 mph - 29.97 in 0 in
      5/4/2022 66 °F / 46 °F 50 °F / 43 °F 69 % 8 mph - 30.02 in 0 in
      5/5/2022 68 °F / 48 °F 52 °F / 43 °F 73 % 9 mph - 30.15 in 0 in
      5/6/2022 72 °F / 46 °F 54 °F / 45 °F 72 % 12 mph - 30.22 in 0 in
      5/7/2022 70 °F / 50 °F 54 °F / 46 °F 73 % 9 mph - 30.17 in 0 in
      5/8/2022 75 °F / 52 °F 55 °F / 48 °F 67 % 9 mph - 30.12 in 0 in
      5/9/2022 81 °F / 55 °F 57 °F / 50 °F 60 % 9 mph - 30.1 in 0 in
      5/10/2022 79 °F / 54 °F 57 °F / 46 °F 64 % 12 mph - 29.99 in 0 in
      5/11/2022 68 °F / 52 °F 55 °F / 50 °F 82 % 15 mph - 29.92 in 0 in
      5/12/2022 68 °F / 52 °F 54 °F / 46 °F 73 % 9 mph - 30.04 in 0 in
      5/13/2022 73 °F / 50 °F 50 °F / 41 °F 57 % 9 mph - 30.1 in 0 in
      5/14/2022 81 °F / 55 °F 59 °F / 45 °F 57 % 13 mph - 29.96 in 0 in
      5/15/2022 82 °F / 61 °F 64 °F / 54 °F 66 % 17 mph - 29.76 in 0 in
      5/16/2022 79 °F / 55 °F 59 °F / 54 °F 74 % 14 mph - 29.94 in 0 in
      5/17/2022 84 °F / 57 °F 64 °F / 54 °F 67 % 20 mph - 29.94 in 0 in
      5/18/2022 86 °F / 54 °F 59 °F / 52 °F 68 % 13 mph - 29.97 in 0 in
      5/19/2022 77 °F / 57 °F 57 °F / 50 °F 68 % 8 mph - 29.99 in 0 in
      5/20/2022 73 °F / 55 °F 61 °F / 46 °F 75 % 12 mph - 30.01 in 0 in
      5/21/2022 81 °F / 50 °F 57 °F / 50 °F 70 % 10 mph - 30.04 in 0 in
      5/22/2022 84 °F / 63 °F 64 °F / 54 °F 64 % 13 mph - 29.74 in 0 in
      5/23/2022 72 °F / 54 °F 64 °F / 50 °F 84 % 16 mph - 29.6 in 0 in
      5/24/2022 64 °F / 50 °F 54 °F / 46 °F 78 % 15 mph - 29.76 in 0 in
      5/25/2022 66 °F / 45 °F 55 °F / 45 °F 78 % 14 mph - 30.03 in 0 in
      5/26/2022 64 °F / 57 °F 55 °F / 52 °F 76 % 8 mph - 30.22 in 0 in
      5/27/2022 66 °F / 48 °F 57 °F / 48 °F 81 % 6 mph - 30.22 in 0 in
      5/28/2022 73 °F / 50 °F 54 °F / 45 °F 63 % 13 mph - 30.07 in 0 in
      5/29/2022 66 °F / 52 °F 48 °F / 36 °F 55 % 17 mph - 29.89 in 0 in
      5/30/2022 68 °F / 46 °F 46 °F / 37 °F 58 % 10 mph - 29.79 in 0 in
      5/31/2022 72 °F / 46 °F 48 °F / 34 °F 56 % 13 mph - 29.84 in 0 in
      essentialaccessibility.com
      We recognize our responsibility to use data and technology for good. We may use or share your data with our data vendors. Take control of your data.
      Glossary